This is the latest recevied weather packets stored in our database for station/object N5COP-13. If no packets are shown the sender has not sent any weather packets the latest 10 day(s).
| Time | Temp. | Humidity | Pressure | Rain* | Wind** | Luminosity | Snow |
|---|---|---|---|---|---|---|---|
| 1777581386 | 18.33° C | 36% | 1015.8 hPa | 0 mm | - | 681 W/m² | - |
| 1777581081 | 17.78° C | 36% | 1015.6 hPa | 0 mm | - | 394 W/m² | - |
| 1777580780 | 17.78° C | 36% | 1016 hPa | 0 mm | - | 445 W/m² | - |
| 1777580477 | 17.78° C | 36% | 1015.6 hPa | 0 mm | - | 525 W/m² | - |
| 1777580177 | 17.78° C | 36% | 1015.8 hPa | 0 mm | - | 465 W/m² | - |
| 1777579875 | 18.33° C | 35% | 1015.8 hPa | 0 mm | - | 442 W/m² | - |
| 1777579574 | 18.89° C | 35% | 1015.8 hPa | 0 mm | - | 529 W/m² | - |
| 1777579269 | 18.33° C | 36% | 1016 hPa | 0 mm | - | 612 W/m² | - |
| 1777578964 | 17.78° C | 36% | 1015.9 hPa | 0 mm | - | 552 W/m² | - |
| 1777578659 | 18.33° C | 36% | 1015.8 hPa | 0 mm | - | 636 W/m² | - |
| 1777578358 | 17.78° C | 36% | 1016.1 hPa | 0 mm | - | 624 W/m² | - |
| 1777578055 | 17.78° C | 37% | 1016.1 hPa | 0 mm | - | 607 W/m² | - |
| 1777577750 | 17.78° C | 36% | 1016 hPa | 0 mm | - | 564 W/m² | - |
| 1777577447 | 17.78° C | 37% | 1016.1 hPa | 0 mm | - | 577 W/m² | - |
| 1777577144 | 17.78° C | 37% | 1016.2 hPa | 0 mm | - | 747 W/m² | - |
| 1777576840 | 17.78° C | 37% | 1016.2 hPa | 0 mm | - | 606 W/m² | - |
| 1777576539 | 17.22° C | 37% | 1016.2 hPa | 0 mm | - | 795 W/m² | - |
| 1777576236 | 17.78° C | 36% | 1016.2 hPa | 0 mm | - | 644 W/m² | - |
| 1777575932 | 17.22° C | 37% | 1016.3 hPa | 0 mm | - | 754 W/m² | - |
| 1777575628 | 17.22° C | 37% | 1016.5 hPa | 0 mm | - | 818 W/m² | - |
| 1777575325 | 17.22° C | 37% | 1016.4 hPa | 0 mm | - | 739 W/m² | - |
| 1777575020 | 17.22° C | 38% | 1016.6 hPa | 0 mm | - | 811 W/m² | - |
| 1777574716 | 17.22° C | 37% | 1016.5 hPa | 0 mm | - | 894 W/m² | - |
| 1777574414 | 16.67° C | 38% | 1016.5 hPa | 0 mm | - | 815 W/m² | - |
| 1777574109 | 16.67° C | 39% | 1016.8 hPa | 0 mm | - | 720 W/m² | - |
* Rain latest hour (hover to see other rain measurements)
** Current wind speed in m/s (hover to see current wind gust speed)